Location: Br�ttisellen
(47.4227°N, 8.6287°E)
Time: 10:33:10
(UTC+00:00)

Cosmos 2344 - Pass Details

Date: 09 April 2020
Orbit: 1251 x 2991 km, 63.3° (Epoch: 25 May)

Event Time Altitude Azimuth Distance (km) Brightness Sun altitude
Rises 22:24:06 0° 319° (NW) 4,663 7.4 -32.8°
Reaches altitude 10° 22:26:45 10° 317° (NW) 3,826 6.8 -33.0°
Maximum altitude 22:36:25 71° 236° (WSW) 2,079 4.4 -33.4°
Enters shadow 22:38:41 60° 184° (S) 2,315 4.5 -33.5°
